Powrót do katalogu

QIANFAN-63

AktywnyŁącznośćPO
NORAD 62793·PAYLOAD·🇨🇳 China

Wystrzelony Jan 23, 2025 z Taiyuan Satellite Launch Center

Loading…

Następne Przeloty (najbliższe 24 godziny)

TLE

ŚwieżeSource: Space-Track

Epoka: Sep 14, 2026, 13:52 UTC

1 62793U 25016J   26257.57801176  .00000024  00000-0  19205-4 0  9995
2 62793  88.9669  74.4225 0014280 272.1123  87.8393 13.51022740 84513

Śledź QIANFAN-63 w czasie rzeczywistym z AllMySat

Download on the App Store